Location: Joplin, MO
(37.0842°N, 94.5133°W)
Time: 22:24:40
(UTC+02:00)

Courier 1B Rocket - Pass Details

Date: 04 April 2023
Orbit: 920 x 1202 km, 28.2° (Epoch: 05 June)

Event Time Altitude Azimuth Distance (km) Brightness Sun altitude
Rises 22:26:51 0° 214° (SSW) 4,067 8.9 47.6°
Reaches altitude 10° 22:30:35 10° 198° (SSW) 3,120 8.4 47.0°
Maximum altitude 22:35:51 20° 155° (SSE) 2,466 7.5 46.2°
Drops below altitude 10° 22:41:05 10° 112° (ESE) 3,103 7.5 45.3°
Sets 22:44:46 0° 96° (E) 4,038 7.9 44.7°
